THORAD AGENA D DEB

Satellite information

Favourite Embed

Satellite Type and Status

DEBRISIN ORBIT

Key statistics

Satellite THORAD AGENA D DEB at a glance.

Uptime

20119

Days in orbit

Revolutions

≈ 14.3

Per day

Orbit

SSO

Sun Synchronous Orbit

Inclination

100.0

Latest

Satellite identification and parameters

Extended collection of information and parameters for THORAD AGENA D DEB.

Object identification

Identified? True

Debris? True

Object name: THORAD AGENA D DEB

International designator: 1970-025FH

Object number (NORAD): 4911

Object ID (CCSDS): 4911

Country: UNITED STATES OF AMERICA (US)

Current information (Y/N): Y

RCS size: SMALL

Orbital parameters

Period: 100.696 minutes

Inclination: 99.9916 deg

SMA: 7169.727 km

Apoapsis: 835.772 km

Periapsis: 747.412 km

RAAN: 303.8899 deg

Eccentricy: 0.006162

Argument of periapsis: 18.9784 deg

Mean anomaly: 341.367 deg

Mean motion: 14.30042063 rev/day

Mean motion (dot): 0.00002612 rev/day2

B* drag term: 0.001012 1/REarth

Two-line elements (TLE)

Creation date: May 8, 2025, 3:01 a.m.

Reference frame: TEME

Reference center: EARTH

Epoch: May 7, 2025, 10:41 p.m. UTC

TLE line 0: 0 THORAD AGENA D DEB

TLE line 1: 1 04911U 70025FH 25127.94573983 .00002612 00000-0 10120-2 0 9991

TLE line 2: 2 04911 99.9916 303.8899 0061620 18.9784 341.3670 14.30042063813630

Live tracking on map

Real-time ground track for satellite THORAD AGENA D DEB.

In-orbit conjunctions

A list of the most updated potential collisions computed for object THORAD AGENA D DEB.

Target Orbit TCA Probability of collision Miss distance Type
DELTA 1 DEB SSO 2024-11-14 17:51:28 0.000344517 547.0 (m) DEBRIS
SL-16 R/B LEO 2024-06-30 17:02:09 0.0001692295 86.0 (m) ROCKET BODY

Associated space launch

Meteorological research and development satellite

THORAD AGENA D DEB was lifted into orbit during the mission ‘Thorad SLV-2G Agena D | Nimbus 4’, on board a Thorad SLV-2G Agena D space rocket.

The launch took place on April 8, 1970, 8:17 a.m. from Space Launch Complex 2E.

For more information about the launch, click the button.

Launch to space Thorad SLV-2G Agena D | Nimbus 4
Thorad SLV-2G Agena D | Nimbus 4

Agency: N/A

Status: Launch Successful

Launch date: April 8, 1970, 8:17 a.m. UTC

Rocket: Thorad SLV-2G Agena D

Launch pad: Space Launch Complex 2E

Location: Vandenberg SFB, CA, USA

...

Latest news about this satellite

There are no fresh news available about this satellite. Check back as we update our databases every day.


Newsletter sign-up

Weekly statistics, charts and insights to help you stay on top of the space industry.